METEOSAT-9 (MSG-2)

Last updated on Jan. 18, 2020, 4:37 a.m. UTC

1 28912U 05049B   20017.22978322  .00000012  00000-0  00000-0 0  9998
2 28912   4.1049  70.7078 0000819 355.7807 135.6845  1.00274753 51540
UTC
Height (km)
Latitude
Longitude
Inclination
Orbital Period
UTC large
Height (km)
Speed (km/s)
/
Latitude / Longitude
Inclination (degrees)
Orbital Period (minutes)
Azimuth
Elevation
Range (km)
Doppler Factor
iOS Compass Heading
iOS Angle

Next 30 passes for location: Hong Kong

Rise time Rise Azimuth (degrees) Set time Set Azimuth (degrees) Duration Max altitude (degrees)

No matching passes for this satellites